Location: Newark
(41.9000°N, 12.4833°E)
Time: 03:35:50
(UTC+00:00)

OTV 5 (USA 277) - Visible Passes

Search period start: 21 October 2019 00:00
Search period end: 31 October 2019 00:00
Orbit: 310 x 324 km, 54.5° (Epoch: 17 October)

Date Brightness Start Highest point End Pass type
(mag) Time Alt. Az. Time Alt. Az. Time Alt. Az.
21 Oct ? 03:48:52 38° SSE 03:48:52 38° SSE 03:50:43 10° SE visible
22 Oct ? 04:03:45 16° S 04:03:45 16° S 04:04:40 10° S visible
27 Oct ? 18:23:53 10° SW 18:24:02 11° SW 18:24:02 11° SW visible
28 Oct ? 17:04:54 10° S 17:07:02 21° SE 17:07:46 18° ESE visible
29 Oct ? 17:18:44 10° SW 17:21:26 61° SE 17:22:16 37° ENE visible
30 Oct ? 17:33:22 10° WSW 17:36:00 43° NW 17:36:39 35° N visible
